Regional Weather Roundup
Issued by NWS Mobile, AL

Home | Current Version | Previous Version | Text Only | Print | Product List | Glossary On
Versions: 1 2 3 4 5 6 7 8 9 10 11 12 13 14 15 16 17 18 19 20 21 22 23 24 25 26 27 28 29 30 31 32 33 34 35 36 37 38 39 40 41 42 43 44 45 46 47 48 49 50
000
ASUS44 KMOB 011010
RWRMOB
REGIONAL WEATHER ROUNDUP
NATIONAL WEATHER SERVICE MOBILE AL
500 AM CDT WED OCT 01 2014

NOTE: "FAIR" INDICATES FEW OR NO CLOUDS BELOW 12,000 FEET WITH NO
      SIGNIFICANT WEATHER AND/OR OBSTRUCTIONS TO VISIBILITY.

  * THESE STATIONS ARE PART OF THE UNIVERSITY OF SOUTH ALABAMA
    MESONET AND ARE NOT UNDER NWS OR FAA QUALITY CONTROL.

ALZ061>064-011100-
COASTAL ALABAMA

CITY           SKY/WX    TMP DP  RH WIND       PRES   REMARKS
MOBILE REG APT CLEAR     65  65 100 NE3       29.92R
BROOKLEY FIELD CLEAR     68  67  96 NW5       29.92S
USA CAMPUS*      N/A     64  64 100 CALM      29.92R
DOG RIVER*     NOT AVBL


CITY           SKY/WX    TMP DP  RH WIND       PRES   REMARKS
MOUNT VERNON*    N/A     59  57  94 CALM      29.93R
SARALAND*      NOT AVBL
BAY MINETTE*   NOT AVBL
LOXLEY*          N/A     63  63 100 CALM      29.92R
ROBERTSDALE*     N/A     64  64 100 CALM      29.92R
FAIRHOPE*        N/A     63  63 100 CALM      29.91R
ELBERTA*         N/A     66  66 100 N2        29.90R
FOLEY*         NOT AVBL
GRAND BAY*       N/A     66  66 100 CALM      29.89R
DAUPHIN ISLND* NOT AVBL
BON SCOUR NWR* NOT AVBL
GULF SHORES    PTCLDY    66  66  97 CALM      29.91R

$$

ALZ051>060-011100-
INTERIOR SOUTHWEST AND SOUTH CENTRAL ALABAMA

CITY           SKY/WX    TMP DP  RH WIND       PRES   REMARKS
GREENVILLE     CLEAR     61  58  90 CALM      29.93R
EVERGREEN      CLEAR     61  59  93 CALM      29.94R FOG
CASTLEBERRY*   NOT AVBL
ATMORE*        NOT AVBL
DIXIE*         NOT AVBL
ANDALUSIA/OPP  PTCLDY    64  61  88 CALM      29.93R
ANDALUSIA*       N/A     63  63 100 CALM      29.93R
FLORALA APT    PTCLDY    61  59  93 CALM      29.95R
FLORALA*         N/A     61  59  94 CALM      29.90

$$

FLZ001>006-011100-
WESTERN FLORIDA PANHANDLE

CITY           SKY/WX    TMP DP  RH WIND       PRES   REMARKS
PENSACOLA      PTCLDY    68  66  93 N5        29.90R
NAS PENSACOLA  CLOUDY    70  68  93 N5        29.90R
MILTON         CLEAR     62  60  93 N3        29.92R FOG
WHTNG S FIELD  CLEAR     63  61  93 NE3       29.92R


CITY           SKY/WX    TMP DP  RH WIND       PRES   REMARKS
WALNUT HILL*   NOT AVBL
JAY*           NOT AVBL
DUKE FIELD     CLEAR     61  61 100 N2        29.92R FOG
CRESTVIEW      CLOUDY    59  59 100 CALM      29.93R FOG
VALPARAISO     CLEAR     66  65  96 N2        29.91R
DESTIN         CLEAR     70  68  93 CALM      29.91R

$$

MSZ076-079-011100-
INTERIOR SOUTHEAST MISSISSIPPI

CITY           SKY/WX    TMP DP  RH WIND       PRES   REMARKS
LEAKESVILLE*   NOT AVBL
AGRICOLA*      NOT AVBL

$$

MARINE OBSERVATIONS

STATION/POSITION TIME  TEMP    WIND        PRES    WAVE
                       AIR SEA DIR/SP/G            HT/PER
                 (UTC) (F)     (DEG/KT/KT) (MB)    (FT/S)
PASCAGOULA       1000   73      60/  5/  6 1012.1R
PETIT BOIS ISLND 1000   76     100/  4/  5 1012.6R
GRAND BAY        0900   74      60/  4     1013.0S
KATRINA CUT      0900   76      70/  7     1012.9S
CEDAR POINT      0900   74      70/  5     1012.2F
E DAUPHIN ISLAND 1000   76      60/  9/  9 1012.2S
MIDDLE BAY LIGHT 0900   74      90/  8     1011.9F
STATE DOCKS      1000   71 80              1012.6R
MEAHER PARK      0900   71      30/  1     1012.9R
WEEKS BAY        0900   67                   N/A
FORT MORGAN      1000   75      80/  8/  9 1012.0R
12 S ORANGE BCH  1000   78 81  160/  4/  6 1012.4R   1/ 4
PENSACOLA BAY    1000   71 79   30/  3/  5 1012.7S
64 S DAUPHIN ISL 0853   79 82  130/  6/  8 1012.5R   2/ 4
67 S FORT MORGAN 0900   78                   N/A

$$

SELECTED LOCATIONS ACROSS THE REGION

CITY           SKY/WX    TMP DP  RH WIND       PRES   REMARKS
NEW ORLEANS    PTCLDY    75  72  90 E5        29.88R
GULFPORT       CLEAR     71  69  93 CALM      29.89R
PASCAGOULA AP  CLEAR     64  63  96 CALM      29.90S FOG
PASCAGOULA*      N/A     70  70 100 CALM      29.90R
HATTIESBURG    CLEAR     66  65  96 CALM      29.93R
LAUREL         MOCLDY   N/A N/A N/A CALM      29.93R
MERIDIAN       CLEAR     62  60  93 CALM      29.93R
JACKSON        PTCLDY    69  67  93 CALM      29.91R
MONTGOMERY     CLEAR     63  61  93 CALM      29.94R
TROY           FOG       61  60  97 CALM      29.94R VSB 1/4
KINSTON*       NOT AVBL
GENEVA*          N/A     61  59  94 CALM      29.95R
ASHFORD*         N/A     63  63 100 CALM      29.93R
DOTHAN         FOG       62  62 100 CALM      29.97R VSB 3/4
PANAMA CITY    CLEAR     67  64  90 NW3       29.90R

$$



USA.gov is the U.S. government's official web portal to all federal, state and local government web resources and services.